Regional Weather Roundup
Issued by NWS Huntsville, AL

Home | Current Version | Previous Version | Text Only | Print | Product List | Glossary On
Versions: 1 2 3 4 5 6 7 8 9 10 11 12 13 14 15 16 17 18 19 20 21 22 23 24 25 26 27 28 29 30 31 32 33 34 35 36 37 38 39 40 41 42 43 44 45 46 47 48 49 50
000
ASUS44 KHUN 281110
RWRHUN

WEATHER ROUNDUP FOR THE TENNESSEE VALLEY
NATIONAL WEATHER SERVICE HUNTSVILLE AL
600 AM CDT THU AUG 28 2014

ALZ001>004-281200-
NORTHWEST ALABAMA

CITY           SKY/WX    TMP DP  RH WIND       PRES   REMARKS
SHOALS AIRPORT FOG       67  65  93 CALM      30.05S VSB 1/2
$$

ALZ005>007-016-281200-
NORTH CENTRAL ALABAMA

CITY           SKY/WX    TMP DP  RH WIND       PRES   REMARKS
DECATUR AP     CLEAR     65  64  97 CALM      30.05R
HUNTSVILLE AP  PTCLDY    70  67  90 CALM      30.05R
HUN NWS/UAH      N/A     70  65  85 E1          N/A
MERIDIANVILLE  CLEAR     64  61  88 CALM      30.06R
VINEMONT AP    PTSUNNY   62  62  97 CALM      30.08S
$$

ALZ008>010-281200-
NORTHEAST ALABAMA

CITY           SKY/WX    TMP DP  RH WIND       PRES   REMARKS
ALBERTVILLE    PTCLDY    68  68 100 CALM      30.06R
FORT PAYNE     CLEAR     63  59  88 CALM      30.06S
SCOTTSBORO AP  FOG       68  68 100 CALM      30.06S VSB 3/4
SCOTTSBORO HCN   N/A     66 N/A N/A MISG        N/A
VALLEY HEAD      N/A     63 N/A N/A MISG        N/A
$$

TNZ076-096-097-281200-
SOUTHEASTERN MIDDLE TENNESSEE

CITY           SKY/WX    TMP DP  RH WIND       PRES   REMARKS
FAYETTEVILLE   CLEAR     64  64 100 CALM      30.06S
TULLAHOMA      CLEAR     63  61  94 CALM      30.08R
WINCHESTER     CLEAR     63  63 100 CALM      30.07S
$$

...SURROUNDING SITES...

CITY           SKY/WX    TMP DP  RH WIND       PRES   REMARKS
ATLANTA        PTCLDY    69  63  81 CALM      30.06R
ANNISTON       CLEAR     64  62  93 E3        30.06R
BIRMINGHAM     PTCLDY    67  61  81 CALM      30.06R
CHATTANOOGA    PTCLDY    67  63  87 CALM      30.06R
CORINTH        FAIR      68  66  94 W3        30.03R FOG
DALTON         CLEAR     61  61 100 CALM      30.07R
GADSDEN        MOCLDY    63  59  88 CALM      30.05R
GOLDEN TRNGL   CLEAR     66  63  88 CALM      30.03R
HALEYVILLE     FAIR      64  64 100 CALM      30.08R
JACKSON TN     PTCLDY    70  68  93 CALM      30.03R
LEWISBURG      FAIR      64  62  93 CALM      30.05R
MEMPHIS        PTCLDY    74  65  73 CALM      30.02S
MURFREESBORO   FAIR      69  67  93 CALM      30.04S
NASHVILLE      PTCLDY    71  69  93 CALM      30.05R
ROME           CLEAR     62  60  93 CALM      30.06R
SAVANNAH       MOCLDY    66  66 100 CALM      30.04S
TUPELO         PTCLDY    70  66  87 CALM      30.03R
TUSCALOOSA     CLEAR     66  63  90 N3        30.03R
$$

...GULF COAST WEATHER...

CITY           SKY/WX    TMP DP  RH WIND       PRES   REMARKS
GULFPORT       MOCLDY    77  73  87 CALM      29.98R
PASCAGOULA     CLOUDY    74  73  97 CALM      29.99R
MOBILE         PTCLDY    73  72  96 CALM      30.01R
GULF SHORES    MOSUNNY   72  71  97 CALM      29.99R
PENSACOLA      MOCLDY    72  71  97 CALM      29.99R
DESTIN         PTCLDY    78  72  81 CALM      29.99R
PANAMA CITY    PTCLDY    72  72 100 CALM      30.00R FOG
APPALACHICOLA  CLEAR     71  68  90 NE6       29.99R
$$



USA.gov is the U.S. government's official web portal to all federal, state and local government web resources and services.